SCP
0 0 0 0 0 0 0 0 0 0 0 0 0 0 0 0 0 0 0 0 0 0
0 0 0 0 0 0 -0 0 -0 -0 0 0 0 0 0 -0 0 0 0 0 0 0
0 0 0 0 0 0 -0 -0 0 0 0 0 0 0 0 0 0 0 0 0 0 0
0 0 0 0 0 0 0 -0 0 0 0 0 0 0 0 0 0 0 0 0 0 0
0 0 0 0 0 0 0 -0 0 0 0 0 0 0 0 0 0 0 0 0 0 0
0 0 0 0 0 0 0 -0 -0 0 0 0 0 0 0 0 0 0 0 0 0 0
0 0 0 0 0 0 0 0 0 0 -0 -0 -0 0 0 0 0 0 0 0 0 0
0 0 0 0 0 0 0 0 0 0 -0 -0 -0 -0 0 0 0 0 0 0 0 0
0 0 0 0 0 0 0 0 0 -0 0 -0 0 0 0 0 0 0 0 0 0 0
0 0 0 0 0 0 0 0 0 0 0 0 0 0 0 0 0 0 0 0 0 0
0 0 0 0 0 0 0 0 0 0 0 0 0 0 0 0 0 0 0 -0 -0 -0
0 0 0 0 0 0 0 0 0 0 0 0 0 0 -0 -0 -0 -0 -0 -0 -0 -0
-0 0 0 0 0 0 0 0 0 0 0 0 0 -0 -0 -0 -0 -0 -0 -0 -0 -0
-0 -0 0 0 0 0 0 0 0 0 0 0 0 -0 -0 -0 -0 -0 -0 -0 -0 -0
Wind_Speed_500mb
19 13 14 15 16 14 15 19 19 18 26 28 33 36 42 39 35 44 42 45 43 40
13 14 16 18 15 15 18 22 18 21 24 31 33 37 41 36 37 45 44 43 43 44
12 13 16 12 18 20 25 25 24 25 30 32 31 39 43 44 43 48 43 41 38 36
11 13 17 16 20 19 22 25 29 27 31 37 39 39 47 50 46 50 48 40 31 34
6 9 16 18 26 23 15 20 25 29 35 36 41 45 44 46 55 61 49 31 25 39
7 10 15 19 21 31 34 33 33 25 30 35 38 40 40 44 47 50 37 32 33 48
11 11 17 19 23 31 34 34 34 28 30 28 28 31 36 35 39 42 42 34 34 39
15 23 27 21 19 23 27 32 29 26 28 30 25 24 34 36 37 33 39 28 35 37
24 26 22 22 18 23 25 25 19 24 29 32 35 31 28 37 36 35 38 37 41 61
32 30 28 27 26 25 21 20 18 17 19 33 34 28 36 40 39 39 41 54 64 57
35 33 31 31 30 27 23 17 13 28 30 29 34 34 35 34 36 37 42 60 53 46
31 38 29 35 35 34 28 19 14 23 29 32 36 35 32 34 41 46 45 46 44 42
23 38 33 37 34 33 36 26 18 18 22 26 31 32 33 38 44 39 37 35 35 35
33 38 35 40 38 30 34 34 24 16 20 24 27 34 32 31 35 36 36 37 40 37
Wind_Direction_500mb
89 55 50 46 50 61 96 116 119 127 152 168 173 171 175 178 177 172 171 172 178 180
62 57 46 33 47 71 103 119 113 125 132 140 163 170 171 168 165 164 172 173 171 182
36 58 53 39 59 90 109 112 125 122 131 136 151 151 154 162 161 165 169 157 153 161
72 54 56 64 71 101 112 112 123 121 131 136 145 153 155 162 161 150 147 152 159 167
122 91 87 81 76 88 106 115 117 125 134 147 146 149 155 162 162 156 151 126 140 157
178 133 118 99 77 83 94 105 109 117 133 147 155 157 158 160 166 172 163 129 124 146
191 154 117 114 102 106 93 89 95 94 113 134 144 154 159 162 158 154 156 139 128 140
176 143 114 116 113 109 97 93 97 106 118 133 130 154 165 165 156 160 168 151 145 146
175 152 140 138 128 124 109 131 120 95 94 126 126 120 118 163 173 175 178 169 157 162
172 165 166 156 145 137 136 133 118 127 117 115 114 129 127 122 130 127 142 145 144 153
174 182 184 172 162 154 158 155 122 135 137 123 112 118 127 132 127 130 133 154 158 152
186 188 187 177 178 174 167 165 144 147 147 144 135 132 129 133 134 132 135 146 156 161
195 190 189 188 196 191 188 183 166 142 158 155 149 143 142 144 146 142 143 150 159 163
197 197 204 195 203 202 194 182 178 177 164 172 175 164 161 159 165 171 165 166 171 170
Wind_Speed_850mb
19 13 14 15 16 14 15 19 19 18 26 28 33 36 42 39 35 44 42 45 43 40
13 14 16 18 15 15 18 22 18 21 24 31 33 37 41 36 37 45 44 43 43 44
12 13 16 12 18 20 25 25 24 25 30 32 31 39 43 44 43 48 43 41 38 36
11 13 17 16 20 19 22 25 29 27 31 37 39 39 47 50 46 50 48 40 31 34
6 9 16 18 26 23 15 20 25 29 35 36 41 45 44 46 55 61 49 31 25 39
7 10 15 19 21 31 34 33 33 25 30 35 38 40 40 44 47 50 37 32 33 48
11 11 17 19 23 31 34 34 34 28 30 28 28 31 36 35 39 42 42 34 34 39
15 23 27 21 19 23 27 32 29 26 28 30 25 24 34 36 37 33 39 28 35 37
24 26 22 22 18 23 25 25 19 24 29 32 35 31 28 37 36 35 38 37 41 61
32 30 28 27 26 25 21 20 18 17 19 33 34 28 36 40 39 39 41 54 64 57
35 33 31 31 30 27 23 17 13 28 30 29 34 34 35 34 36 37 42 60 53 46
31 38 29 35 35 34 28 19 14 23 29 32 36 35 32 34 41 46 45 46 44 42
23 38 33 37 34 33 36 26 18 18 22 26 31 32 33 38 44 39 37 35 35 35
33 38 35 40 38 30 34 34 24 16 20 24 27 34 32 31 35 36 36 37 40 37
Wind_Direction_850mb
89 55 50 46 50 61 96 116 119 127 152 168 173 171 175 178 177 172 171 172 178 180
62 57 46 33 47 71 103 119 113 125 132 140 163 170 171 168 165 164 172 173 171 182
36 58 53 39 59 90 109 112 125 122 131 136 151 151 154 162 161 165 169 157 153 161
72 54 56 64 71 101 112 112 123 121 131 136 145 153 155 162 161 150 147 152 159 167
122 91 87 81 76 88 106 115 117 125 134 147 146 149 155 162 162 156 151 126 140 157
178 133 118 99 77 83 94 105 109 117 133 147 155 157 158 160 166 172 163 129 124 146
191 154 117 114 102 106 93 89 95 94 113 134 144 154 159 162 158 154 156 139 128 140
176 143 114 116 113 109 97 93 97 106 118 133 130 154 165 165 156 160 168 151 145 146
175 152 140 138 128 124 109 131 120 95 94 126 126 120 118 163 173 175 178 169 157 162
172 165 166 156 145 137 136 133 118 127 117 115 114 129 127 122 130 127 142 145 144 153
174 182 184 172 162 154 158 155 122 135 137 123 112 118 127 132 127 130 133 154 158 152
186 188 187 177 178 174 167 165 144 147 147 144 135 132 129 133 134 132 135 146 156 161
195 190 189 188 196 191 188 183 166 142 158 155 149 143 142 144 146 142 143 150 159 163
197 197 204 195 203 202 194 182 178 177 164 172 175 164 161 159 165 171 165 166 171 170